DECAYED

CZ-6A DEB, 61375 (Decayed)

Orbit data source: Space-Track

CZ-6A DEB, 61375 was space debris in LEO originally from a launch on Tue, 06 Aug 2024 UTC launched from the Taiyaun Space Center, China (TSC). Debris objects in space refer to the collection of defunct objects orbiting the Earth. Examples of debris include non-operational satellites, rocket bodies, and fragments generated from explosions, collisions, or faulty payload assembly.

Not visible in the next 10 days
Identifier
61375, 2024-140WQ
Orbit
Decayed
Country
Flag of CNCN / PRC
Related business
Manufacturer
SAST
Mission
Decayed spacecraft
Bus & Motor
Unknown
Mass
Unknown
Launch date (UTC)
2024-08-06 (2 years ago)
Launch vehicle
Unknown
Launch site
Taiyaun Space Center, China (TSC)
Object type
Payload
Rocket body
Debris
Shape & HBR
Unknown shape, 1.1 m
Radar Cross Section
Medium (>0.1 m² and <1 m²)

Expand to show TLE details & history
Last TLE update: 1 year ago

TLE from 1 year ago
0 CZ-6A DEB
1 61375U 24140WQ  25087.91797341  .08135152  25925+0  25899-1 0  9997
2 61375  89.1667 327.2873 0017893 226.7580 133.2217 16.00992543 30765
Epoch: 2025-03-28T22:01Z
TLE epoch observation values (Epoch: 2025-03-28T22:01:52.902Z)
Latitude
-0°
Longitude
170.24684°
Altitude
283.139 km
Speed
7.733 km/s
True Right ascension
21h 49m 08s
True Declination
0° 00' 00"
Sunlit
Object was in daylight at epoch
Visualization orbit readout
Latitude
Unknown
Longitude
Unknown
Altitude
Unknown
Speed
Unknown
Apparent Right ascension
Unknown
Apparent Declination
Unknown
Sunlit
N/A
Visualization observer readout
Local Sidereal Time
10:17:08
Azimuth
Unknown
Elevation
Unknown
Doppler factor
Unknown
Orbital elements
Apogee altitude
280.257 km
Perigee altitude
256.472 km
Semi-major axis
6,646.502 km
Eccentricity
0.00179
Inclination
89.1667°
RAAN
327.2873°
Arg. of periapsis
226.758°
True anomaly
133.37088°
Mean anomaly
133.2217°
Eccentric anomaly
133.29632°
Mean motion
4.00547 °/min
Orbital period
89.88 mins
BSTAR
0.025899
Loading maneuver chart data...
Computing Atmospheric mass density...
Loading historical data...
Loading historical data...
Loading historical data...
Loading historical data...
Loading historical data...
Loading historical data...
Loading historical data...

Documentation

Showing up to 5 results
|